DMSP 5D-2 F13 DEB, 42323

Orbit data source: Space-Track

DMSP 5D-2 F13 DEB, 42323 is space debris in SSO originally from a launch on Fri, 24 Mar 1995 UTC launched from the Air Force Western Test Range (AFWTR). Debris objects in space refer to the collection of defunct objects orbiting the Earth. Examples of debris include non-operational satellites, rocket bodies, and fragments generated from explosions, collisions, or faulty payload assembly.

Loading next visibility...
Identifier
42323, 1995-015JR
Orbit
SSO
Last TLE update
1 day ago
Origin
Manufacturer
Unknown
Mission
Spacecraft
Bus & Motor
Unknown
Mass
Unknown
Launch date (UTC)
1995-03-24 (30 years ago)
Launch vehicle
Unknown
Launch site
Air Force Western Test Range (AFWTR)
Object type
Payload
Rocket body
Debris
Shape & HBR
Unknown
Radar Cross Section
Small (<0.1 m²)

Expand to show TLE details & history

TLE from 1 day ago
0 DMSP 5D-2 F13 DEB
1 42323U 95015JR  25186.48445675  .00000226  00000-0  13376-3 0  9992
2 42323  98.8338 199.2788 0001777 313.0651  47.0374 14.17266634503575
Epoch: 2025-07-05T11:37Z
TLE epoch observation values (Epoch: 2025-07-05T11:37:37.063Z)
Latitude
-0.00007°
Longitude
101.15255°
Altitude
836.645 km
Speed
7.435 km/s
True Right ascension
13h 17m 06s
True Declination
0° 00' 00"
Sunlit
Object was in daylight at epoch
Visualization orbit readout
Latitude
5.60909°
Longitude
-76.54086°
Altitude
837.864 km
Speed
7.434 km/s
Apparent Right ascension
00h 11m 49s
Apparent Declination
-16° 50' 20"
Sunlit
Object is in daylight
Visualization observer readout
Local Sidereal Time
10:20:07
Azimuth
305.564° NW
Elevation
-56.564°
Doppler factor
1
Orbital elements
Apogee altitude
833.061 km
Perigee altitude
830.499 km
Semi-major axis
7,209.917 km
Eccentricity
0.00018
Inclination
98.8338°
RAAN
199.2788°
Arg. of periapsis
313.0651°
True anomaly
Unknown
Mean anomaly
47.0374°
Eccentric anomaly
Unknown
Mean motion
3.54526 °/min
Orbital period
101.54 mins
BSTAR
0.00013376
Loading maneuver chart data...
Loading SW <> Apogee altitude chart data...

DMSP 5D-2 F13 DEB Visibility forecast

Observer location: undefined°, undefined°

Span
Click to sort rows by Start time (UTC) header in descending order
Start Az.
Max El. time (UTC)
Max El. Az.
Max El.
End time (UTC)
End Az.
5 mins2025-07-06 23:23:00.933Z92.119° ESE2025-07-06 23:26:00.933Z56.067° ENE15.293°2025-07-06 23:28:00.933Z32.278° NE
8 mins2025-07-07 01:02:00.933Z177.751° S2025-07-07 01:05:00.933Z227.053° WSW42.731°2025-07-07 01:10:00.933Z340.344° N
8 mins2025-07-07 13:22:00.933Z31.988° NE2025-07-07 13:25:00.933Z82.694° E37.427°2025-07-07 13:30:00.933Z173.852° S
6 mins2025-07-07 15:03:00.933Z329.929° NNW2025-07-07 15:05:00.933Z303.017° NW19.696°2025-07-07 15:09:00.933Z252.152° W
|